This is the latest recevied weather packets stored in our database for station/object N9DMT-13. If no packets are shown the sender has not sent any weather packets the latest 10 day(s).
| Time | Temp. | Humidity | Pressure | Rain* | Wind** | Luminosity | Snow |
|---|---|---|---|---|---|---|---|
| 1778293279 | 10.56° C | 70% | 970.9 hPa | 0 mm | - | - | - |
| 1778292977 | 10.56° C | 69% | 970.7 hPa | 0 mm | - | - | - |
| 1778292677 | 11.11° C | 70% | 970.8 hPa | 0 mm | - | - | - |
| 1778292376 | 11.11° C | 67% | 970.8 hPa | 0 mm | - | - | - |
| 1778291774 | 11.67° C | 60% | 970.8 hPa | 0 mm | - | - | - |
| 1778291474 | 12.22° C | 60% | 970.7 hPa | 0 mm | - | - | - |
| 1778291173 | 12.78° C | 55% | 970.8 hPa | 0 mm | - | - | - |
| 1778290872 | 12.78° C | 55% | 970.8 hPa | 0 mm | - | - | - |
| 1778290572 | 12.78° C | 57% | 970.7 hPa | 0 mm | - | - | - |
| 1778290271 | 13.33° C | 63% | 970.5 hPa | 0 mm | - | - | - |
| 1778289970 | 13.89° C | 56% | 970.7 hPa | 0 mm | - | - | - |
| 1778289669 | 14.44° C | 55% | 970.5 hPa | 0 mm | - | - | - |
| 1778289369 | 15° C | 53% | 970.7 hPa | 0 mm | - | - | - |
| 1778289068 | 15° C | 51% | 970.8 hPa | 0 mm | - | - | - |
| 1778288767 | 15.56° C | 51% | 970.7 hPa | 0 mm | - | - | - |
| 1778288467 | 16.11° C | 47% | 970.6 hPa | 0 mm | - | - | - |
| 1778288166 | 16.67° C | 49% | 970.5 hPa | 0 mm | - | - | - |
| 1778287865 | 17.22° C | 46% | 970.6 hPa | 0 mm | - | - | - |
| 1778287564 | 17.78° C | 46% | 970.7 hPa | 0 mm | - | - | - |
| 1778287263 | 18.33° C | 44% | 970.8 hPa | 0 mm | - | - | - |
| 1778286962 | 18.89° C | 40% | 970.6 hPa | 0 mm | - | - | - |
| 1778286661 | 18.89° C | 38% | 970.7 hPa | 0 mm | - | - | - |
| 1778286360 | 19.44° C | 34% | 970.9 hPa | 0 mm | - | - | - |
| 1778286060 | 19.44° C | 30% | 970.8 hPa | 0 mm | - | - | - |
| 1778285759 | 20° C | 30% | 970.8 hPa | 0 mm | - | - | - |
* Rain latest hour (hover to see other rain measurements)
** Current wind speed in m/s (hover to see current wind gust speed)